• în România
  • Lista ţărilor
  • Pe 7 zile
  • Temperatura apei
  • Hartă satelitară
  • Meteo pe hartă
  • Widget-uri
  • user-avatar
    Intrare

    Meteo pe oră la Kaprun

    Astăzi, 16 Iulie, Luni

    Timp Temperatura Precipitaţii Vânt Presiune Umiditate
    00:00 +7°C° 0 mm 1 m/s 598 mmHg 89%
    01:00 +6°C° 0 mm 1 m/s 597 mmHg 90%
    02:00 +6°C° 0 mm 1 m/s 597 mmHg 88%
    03:00 +6°C° 0 mm 1 m/s 597 mmHg 87%
    04:00 +6°C° 0 mm 1 m/s 597 mmHg 85%
    05:00 +7°C° 0 mm 1 m/s 598 mmHg 81%
    06:00 +9°C° 0 mm 1 m/s 598 mmHg 78%
    07:00 +10°C° 0 mm 1 m/s 599 mmHg 73%
    08:00 +12°C° 0 mm 1 m/s 600 mmHg 66%
    09:00 +14°C° 0 mm 1 m/s 600 mmHg 59%
    10:00 +16°C° 0 mm 1 m/s 601 mmHg 52%
    11:00 +16°C° 0,6 mm 1 m/s 601 mmHg 54%
    12:00 +16°C° 0,6 mm 1 m/s 600 mmHg 55%
    13:00 +16°C° 0,6 mm 1 m/s 600 mmHg 57%
    14:00 +15°C° 1,5 mm 1 m/s 599 mmHg 63%
    15:00 +15°C° 1,5 mm 1 m/s 599 mmHg 69%
    16:00 +14°C° 1,5 mm 1 m/s 598 mmHg 75%
    17:00 +13°C° 0,8 mm 1 m/s 598 mmHg 79%
    18:00 +12°C° 0,8 mm 1 m/s 598 mmHg 83%
    19:00 +11°C° 0,8 mm 1 m/s 597 mmHg 87%
    20:00 +10°C° 0,1 mm 1 m/s 597 mmHg 89%
    21:00 +8°C° 0,1 mm 1 m/s 596 mmHg 91%
    22:00 +6°C° 0,1 mm 2 m/s 596 mmHg 93%
    23:00 +6°C° 0 mm 2 m/s 596 mmHg 94%

    Mâine, 17 Iulie, Marţi

    Timp Temperatura Precipitaţii Vânt Presiune Umiditate
    00:00 +5°C° 0 mm 2 m/s 596 mmHg 94%
    01:00 +5°C° 0 mm 2 m/s 596 mmHg 95%
    02:00 +5°C° 0 mm 2 m/s 596 mmHg 94%
    03:00 +4°C° 0 mm 2 m/s 596 mmHg 93%
    04:00 +4°C° 0 mm 2 m/s 596 mmHg 93%
    05:00 +6°C° 0 mm 2 m/s 597 mmHg 90%
    06:00 +7°C° 0 mm 2 m/s 597 mmHg 87%
    07:00 +8°C° 0 mm 2 m/s 598 mmHg 84%
    08:00 +10°C° 0,1 mm 2 m/s 599 mmHg 78%
    09:00 +12°C° 0,1 mm 2 m/s 599 mmHg 71%
    10:00 +14°C° 0,1 mm 2 m/s 600 mmHg 64%
    11:00 +14°C° 0,3 mm 2 m/s 600 mmHg 61%
    12:00 +15°C° 0,3 mm 2 m/s 600 mmHg 58%
    13:00 +16°C° 0,3 mm 3 m/s 601 mmHg 55%
    14:00 +16°C° 0,4 mm 3 m/s 600 mmHg 58%
    15:00 +14°C° 0,4 mm 3 m/s 600 mmHg 61%
    16:00 +14°C° 0,4 mm 3 m/s 600 mmHg 64%
    17:00 +14°C° 0,4 mm 2 m/s 600 mmHg 70%
    18:00 +13°C° 0,4 mm 2 m/s 599 mmHg 77%
    19:00 +10°C° 0,4 mm 2 m/s 599 mmHg 83%
    20:00 +9°C° 0,1 mm 2 m/s 599 mmHg 87%
    21:00 +7°C° 0,1 mm 2 m/s 599 mmHg 91%
    22:00 +6°C° 0,1 mm 2 m/s 598 mmHg 94%
    23:00 +5°C° 0 mm 2 m/s 598 mmHg 93%

    Poimâine, 18 Iulie, Miercuri

    Timp Temperatura Precipitaţii Vânt Presiune Umiditate
    00:00 +5°C° 0 mm 2 m/s 598 mmHg 92%
    01:00 +5°C° 0 mm 2 m/s 598 mmHg 90%
    02:00 +4°C° 0 mm 2 m/s 598 mmHg 90%
    03:00 +4°C° 0 mm 2 m/s 598 mmHg 89%
    04:00 +4°C° 0 mm 2 m/s 598 mmHg 88%
    05:00 +6°C° 0 mm 2 m/s 598 mmHg 84%
    06:00 +8°C° 0 mm 2 m/s 599 mmHg 79%
    07:00 +9°C° 0 mm 2 m/s 600 mmHg 75%
    08:00 +12°C° 0 mm 2 m/s 601 mmHg 67%
    09:00 +14°C° 0 mm 2 m/s 602 mmHg 60%
    10:00 +16°C° 0 mm 2 m/s 602 mmHg 52%
    11:00 +17°C° 0 mm 2 m/s 602 mmHg 50%
    12:00 +18°C° 0 mm 2 m/s 603 mmHg 47%
    13:00 +18°C° 0 mm 2 m/s 603 mmHg 44%
    14:00 +18°C° 0,1 mm 2 m/s 602 mmHg 47%
    15:00 +18°C° 0,1 mm 2 m/s 602 mmHg 50%
    16:00 +17°C° 0,1 mm 2 m/s 602 mmHg 53%
    17:00 +16°C° 0,2 mm 2 m/s 601 mmHg 63%
    18:00 +14°C° 0,2 mm 2 m/s 601 mmHg 74%
    19:00 +13°C° 0,2 mm 1 m/s 600 mmHg 84%
    20:00 +10°C° 0 mm 2 m/s 600 mmHg 88%
    21:00 +9°C° 0 mm 2 m/s 600 mmHg 92%
    22:00 +7°C° 0 mm 2 m/s 599 mmHg 96%
    23:00 +7°C° 0 mm 2 m/s 599 mmHg 96%

    19 Iulie, Joi

    Timp Temperatura Precipitaţii Vânt Presiune Umiditate
    00:00 +6°C° 0 mm 2 m/s 599 mmHg 96%
    01:00 +6°C° 0 mm 2 m/s 599 mmHg 97%
    02:00 +6°C° 0 mm 2 m/s 598 mmHg 96%
    03:00 +5°C° 0 mm 2 m/s 598 mmHg 96%
    04:00 +5°C° 0 mm 2 m/s 598 mmHg 96%
    05:00 +6°C° 0 mm 2 m/s 599 mmHg 91%
    06:00 +8°C° 0 mm 2 m/s 599 mmHg 86%
    07:00 +10°C° 0 mm 1 m/s 600 mmHg 81%
    08:00 +12°C° 0 mm 1 m/s 601 mmHg 71%
    09:00 +14°C° 0 mm 1 m/s 601 mmHg 61%
    10:00 +16°C° 0 mm 2 m/s 602 mmHg 50%
    11:00 +17°C° 0 mm 2 m/s 602 mmHg 47%
    12:00 +18°C° 0 mm 2 m/s 603 mmHg 44%
    13:00 +19°C° 0 mm 2 m/s 603 mmHg 40%
    14:00 +19°C° 0 mm 2 m/s 603 mmHg 42%
    15:00 +19°C° 0 mm 2 m/s 602 mmHg 44%
    16:00 +18°C° 0 mm 2 m/s 602 mmHg 46%
    17:00 +17°C° 0,1 mm 2 m/s 602 mmHg 57%
    18:00 +15°C° 0,1 mm 1 m/s 601 mmHg 68%
    19:00 +14°C° 0,1 mm 1 m/s 600 mmHg 79%
    20:00 +12°C° 0,1 mm 1 m/s 600 mmHg 83%
    21:00 +10°C° 0,1 mm 1 m/s 599 mmHg 88%
    22:00 +8°C° 0,1 mm 1 m/s 599 mmHg 93%
    23:00 +8°C° 0 mm 1 m/s 598 mmHg 92%

    20 Iulie, Vineri

    Timp Temperatura Precipitaţii Vânt Presiune Umiditate
    00:00 +8°C° 0 mm 1 m/s 598 mmHg 92%
    01:00 +8°C° 0 mm 1 m/s 598 mmHg 92%
    02:00 +8°C° 0 mm 1 m/s 598 mmHg 91%
    03:00 +7°C° 0 mm 1 m/s 598 mmHg 90%
    04:00 +7°C° 0 mm 1 m/s 597 mmHg 90%
    05:00 +9°C° 0 mm 1 m/s 598 mmHg 85%
    06:00 +11°C° 0 mm 1 m/s 599 mmHg 80%
    07:00 +13°C° 0 mm 1 m/s 600 mmHg 75%
    08:00 +14°C° 0,1 mm 1 m/s 600 mmHg 69%
    09:00 +16°C° 0,1 mm 1 m/s 601 mmHg 62%
    10:00 +18°C° 0,1 mm 2 m/s 601 mmHg 55%
    11:00 +18°C° 0,9 mm 2 m/s 601 mmHg 59%
    12:00 +18°C° 0,9 mm 2 m/s 601 mmHg 62%
    13:00 +17°C° 0,9 mm 2 m/s 600 mmHg 66%
    14:00 +16°C° 2 mm 2 m/s 600 mmHg 72%
    15:00 +15°C° 2 mm 2 m/s 599 mmHg 78%
    16:00 +14°C° 2 mm 1 m/s 598 mmHg 84%
    17:00 +13°C° 1,7 mm 1 m/s 598 mmHg 88%
    18:00 +13°C° 1,7 mm 1 m/s 598 mmHg 91%
    19:00 +12°C° 1,7 mm 1 m/s 597 mmHg 94%
    20:00 +11°C° 0,9 mm 1 m/s 597 mmHg 95%
    21:00 +10°C° 0,9 mm 1 m/s 597 mmHg 96%
    22:00 +10°C° 0,9 mm 1 m/s 597 mmHg 97%
    23:00 +9°C° 0,7 mm 1 m/s 596 mmHg 97%

    21 Iulie, Sâmbătă

    Timp Temperatura Precipitaţii Vânt Presiune Umiditate
    00:00 +9°C° 0,7 mm 1 m/s 596 mmHg 97%
    01:00 +9°C° 0,7 mm 1 m/s 596 mmHg 97%
    02:00 +9°C° 0,6 mm 1 m/s 596 mmHg 97%
    03:00 +9°C° 0,6 mm 1 m/s 596 mmHg 97%
    04:00 +9°C° 0,6 mm 1 m/s 595 mmHg 97%
    05:00 +9°C° 0,8 mm 1 m/s 596 mmHg 96%
    06:00 +9°C° 0,8 mm 1 m/s 596 mmHg 96%
    07:00 +10°C° 0,8 mm 1 m/s 596 mmHg 96%
    08:00 +10°C° 1,3 mm 1 m/s 596 mmHg 96%
    09:00 +10°C° 1,3 mm 1 m/s 596 mmHg 95%
    10:00 +10°C° 1,3 mm 1 m/s 596 mmHg 94%
    11:00 +10°C° 1,3 mm 1 m/s 596 mmHg 94%
    12:00 +10°C° 1,3 mm 1 m/s 596 mmHg 93%
    13:00 +10°C° 1,3 mm 1 m/s 596 mmHg 92%
    14:00 +9°C° 1,3 mm 2 m/s 596 mmHg 93%
    15:00 +9°C° 1,3 mm 2 m/s 596 mmHg 93%
    16:00 +8°C° 1,3 mm 2 m/s 596 mmHg 94%
    17:00 +8°C° 1,8 mm 2 m/s 596 mmHg 95%
    18:00 +8°C° 1,8 mm 2 m/s 596 mmHg 96%
    19:00 +7°C° 1,8 mm 2 m/s 596 mmHg 97%
    20:00 +7°C° 0,9 mm 2 m/s 596 mmHg 97%
    21:00 +7°C° 0,9 mm 2 m/s 596 mmHg 97%
    22:00 +7°C° 0,9 mm 2 m/s 596 mmHg 97%
    23:00 +7°C° 1,1 mm 2 m/s 596 mmHg 97%
    Arată mai mult